Location: Kumla
(59.1265°N, 15.1401°E)
Time: 20:55:27
(UTC+01:00)

A-11 Canister half - Pass Details

Date: 10 December 2023
Orbit: 1526 x 1682 km, 47.3° (Epoch: 21 February)

Event Time Altitude Azimuth Distance (km) Brightness Sun altitude
Rises 21:26:05 0° 263° (W) 4,936 12.1 -45.6°
Reaches altitude 10° 21:29:30 10° 257° (WSW) 3,944 11.4 -45.9°
Enters shadow 21:33:43 26° 241° (WSW) 2,880 10.4 -46.3°
